Location: Asheville, NC
(35.6000°N, 82.5500°W)
Time: 06:32:38

SEEDS - Pass Details

Date: 16 March 2018
Orbit: 587 x 605 km, 97.5° (Epoch: 16 March)

Event Time Altitude Azimuth Distance (km) Brightness Sun altitude
Rises 20:49:00 0° 200° (SSW) 2,803 ? -15.1°
Reaches altitude 10° 20:51:37 10° 218° (SW) 1,910 ? -15.6°
Maximum altitude 20:54:40 20° 266° (W) 1,392 ? -16.2°
Drops below altitude 10° 20:57:45 10° 313° (NW) 1,928 ? -16.8°
Sets 21:00:26 0° 331° (NNW) 2,838 ? -17.4°
